Location: Arrien
(42.8963°N, 1.0429°E)
Time: 09:59:45
(UTC+00:00)

ISS - Pass Details

Date: 20 February 2026
Orbit: 416 x 426 km, 51.6° (Epoch: 10 March)

Event Time Altitude Azimuth Distance (km) Brightness Sun altitude
Exits shadow 05:30:53 18° 321° (NW) 1,088 -2.0 -14.5°
Maximum altitude 05:31:56 21° 348° (NNW) 993 -2.0 -14.3°
Drops below altitude 10° 05:34:35 10° 40° (NE) 1,495 -0.4 -13.8°
Sets 05:37:01 0° 57° (ENE) 2,358 1.0 -13.3°
